When you browse on this site, cookies collect data to enhance your experience and personalize the content and advertising you see.
Visit our Privacy Policy to learn more. By continuing to use the site, you agree to this use of cookies and data.
  • In Latvia
  • List of Countries
  • For 7 days
  • Water Temperature
  • Weather Map
  • Weather Widgets
  • user-avatar
    Login

    Hourly Weather Koniz

    Today, 3 June, Wednesday

    Time Temperature Precipitation Wind Pressure Humidity
    00:00 +13°C° 0 mm 1 mps 705 mmHg 83%
    01:00 +13°C° 0 mm 1 mps 704 mmHg 83%
    02:00 +12°C° 0 mm 1 mps 704 mmHg 84%
    03:00 +12°C° 0 mm 1 mps 703 mmHg 85%
    04:00 +13°C° 0 mm 1 mps 703 mmHg 82%
    05:00 +15°C° 0 mm 1 mps 703 mmHg 79%
    06:00 +16°C° 0 mm 1 mps 703 mmHg 76%
    07:00 +19°C° 0.1 mm 1 mps 703 mmHg 70%
    08:00 +21°C° 0.1 mm 1 mps 703 mmHg 64%
    09:00 +23°C° 0.1 mm 2 mps 703 mmHg 57%
    10:00 +24°C° 0.2 mm 2 mps 702 mmHg 56%
    11:00 +24°C° 0.2 mm 2 mps 702 mmHg 54%
    12:00 +25°C° 0.2 mm 3 mps 701 mmHg 52%
    13:00 +24°C° 0.6 mm 2 mps 701 mmHg 55%
    14:00 +24°C° 0.6 mm 2 mps 700 mmHg 57%
    15:00 +24°C° 0.6 mm 2 mps 700 mmHg 60%
    16:00 +21°C° 0.7 mm 2 mps 699 mmHg 68%
    17:00 +21°C° 0.7 mm 1 mps 699 mmHg 77%
    18:00 +20°C° 0.7 mm 1 mps 699 mmHg 85%
    19:00 +18°C° 1.1 mm 1 mps 699 mmHg 88%
    20:00 +16°C° 1.1 mm 2 mps 699 mmHg 91%
    21:00 +15°C° 1.1 mm 2 mps 699 mmHg 94%
    22:00 +15°C° 1.3 mm 2 mps 698 mmHg 94%
    23:00 +15°C° 1.3 mm 1 mps 698 mmHg 95%

    Tomorrow, 4 June, Thursday

    Time Temperature Precipitation Wind Pressure Humidity
    00:00 +15°C° 1.3 mm 1 mps 698 mmHg 95%
    01:00 +14°C° 0.2 mm 1 mps 697 mmHg 95%
    02:00 +14°C° 0.2 mm 1 mps 697 mmHg 94%
    03:00 +14°C° 0.2 mm 1 mps 696 mmHg 93%
    04:00 +14°C° 0.1 mm 1 mps 696 mmHg 92%
    05:00 +15°C° 0.1 mm 1 mps 696 mmHg 90%
    06:00 +15°C° 0.1 mm 1 mps 696 mmHg 89%
    07:00 +15°C° 0.7 mm 1 mps 696 mmHg 90%
    08:00 +16°C° 0.7 mm 2 mps 695 mmHg 91%
    09:00 +16°C° 0.7 mm 3 mps 695 mmHg 92%
    10:00 +14°C° 1.2 mm 3 mps 695 mmHg 93%
    11:00 +13°C° 1.2 mm 3 mps 695 mmHg 94%
    12:00 +14°C° 1.2 mm 2 mps 695 mmHg 95%
    13:00 +14°C° 1.7 mm 2 mps 695 mmHg 95%
    14:00 +13°C° 1.7 mm 2 mps 695 mmHg 95%
    15:00 +13°C° 1.7 mm 2 mps 695 mmHg 95%
    16:00 +13°C° 0.4 mm 2 mps 695 mmHg 95%
    17:00 +13°C° 0.4 mm 2 mps 695 mmHg 95%
    18:00 +13°C° 0.4 mm 2 mps 695 mmHg 94%
    19:00 +12°C° 0.2 mm 2 mps 695 mmHg 94%
    20:00 +12°C° 0.2 mm 1 mps 695 mmHg 94%
    21:00 +11°C° 0.2 mm 1 mps 695 mmHg 93%
    22:00 +11°C° 0.1 mm 1 mps 695 mmHg 93%
    23:00 +11°C° 0.1 mm 1 mps 695 mmHg 94%

    Day after tomorrow, 5 June, Friday

    Time Temperature Precipitation Wind Pressure Humidity
    00:00 +11°C° 0.1 mm 1 mps 695 mmHg 94%
    01:00 +11°C° 0.9 mm 1 mps 696 mmHg 95%
    02:00 +11°C° 0.9 mm 1 mps 696 mmHg 96%
    03:00 +11°C° 0.9 mm 1 mps 696 mmHg 97%
    04:00 +11°C° 1 mm 1 mps 696 mmHg 97%
    05:00 +10°C° 1 mm 2 mps 697 mmHg 96%
    06:00 +10°C° 1 mm 2 mps 697 mmHg 95%
    07:00 +12°C° 0.5 mm 2 mps 697 mmHg 92%
    08:00 +12°C° 0.5 mm 3 mps 698 mmHg 88%
    09:00 +12°C° 0.5 mm 3 mps 698 mmHg 85%
    10:00 +13°C° 0.4 mm 4 mps 698 mmHg 78%
    11:00 +14°C° 0.4 mm 5 mps 698 mmHg 71%
    12:00 +15°C° 0.4 mm 5 mps 698 mmHg 64%
    13:00 +15°C° 0.1 mm 5 mps 699 mmHg 60%
    14:00 +16°C° 0.1 mm 6 mps 699 mmHg 57%
    15:00 +16°C° 0.1 mm 6 mps 699 mmHg 53%
    16:00 +15°C° 0 mm 5 mps 699 mmHg 57%
    17:00 +15°C° 0 mm 5 mps 700 mmHg 62%
    18:00 +14°C° 0 mm 4 mps 700 mmHg 66%
    19:00 +13°C° 0 mm 4 mps 700 mmHg 69%
    20:00 +12°C° 0 mm 4 mps 700 mmHg 71%
    21:00 +12°C° 0 mm 4 mps 701 mmHg 74%
    22:00 +12°C° 0 mm 4 mps 701 mmHg 75%
    23:00 +11°C° 0 mm 4 mps 701 mmHg 77%

    6 June, Saturday

    Time Temperature Precipitation Wind Pressure Humidity
    00:00 +11°C° 0 mm 4 mps 701 mmHg 78%
    01:00 +11°C° 0 mm 4 mps 700 mmHg 78%
    02:00 +11°C° 0 mm 3 mps 700 mmHg 78%
    03:00 +11°C° 0 mm 3 mps 700 mmHg 78%
    04:00 +12°C° 0 mm 4 mps 701 mmHg 76%
    05:00 +12°C° 0 mm 4 mps 701 mmHg 74%
    06:00 +13°C° 0 mm 4 mps 701 mmHg 72%
    07:00 +15°C° 0 mm 4 mps 701 mmHg 68%
    08:00 +16°C° 0 mm 5 mps 702 mmHg 65%
    09:00 +17°C° 0 mm 5 mps 702 mmHg 61%
    10:00 +19°C° 0.1 mm 6 mps 702 mmHg 59%
    11:00 +20°C° 0.1 mm 6 mps 702 mmHg 57%
    12:00 +21°C° 0.1 mm 6 mps 702 mmHg 55%
    13:00 +20°C° 0.2 mm 5 mps 702 mmHg 56%
    14:00 +20°C° 0.2 mm 5 mps 702 mmHg 58%
    15:00 +20°C° 0.2 mm 5 mps 702 mmHg 60%
    16:00 +19°C° 0.3 mm 4 mps 702 mmHg 68%
    17:00 +17°C° 0.3 mm 3 mps 701 mmHg 77%
    18:00 +16°C° 0.3 mm 1 mps 701 mmHg 85%
    19:00 +15°C° 0.4 mm 1 mps 702 mmHg 88%
    20:00 +14°C° 0.4 mm 1 mps 702 mmHg 92%
    21:00 +13°C° 0.4 mm 1 mps 702 mmHg 95%
    22:00 +13°C° 1.4 mm 1 mps 702 mmHg 96%
    23:00 +13°C° 1.4 mm 1 mps 702 mmHg 97%

    7 June, Sunday

    Time Temperature Precipitation Wind Pressure Humidity
    00:00 +13°C° 1.4 mm 1 mps 702 mmHg 97%
    01:00 +13°C° 0.8 mm 1 mps 702 mmHg 97%
    02:00 +13°C° 0.8 mm 1 mps 702 mmHg 97%
    03:00 +13°C° 0.8 mm 1 mps 701 mmHg 96%
    04:00 +13°C° 0.2 mm 1 mps 702 mmHg 96%
    05:00 +12°C° 0.2 mm 0 mps 702 mmHg 96%
    06:00 +13°C° 0.2 mm 0 mps 702 mmHg 95%
    07:00 +14°C° 0.4 mm 1 mps 702 mmHg 94%
    08:00 +15°C° 0.4 mm 1 mps 703 mmHg 93%
    09:00 +15°C° 0.4 mm 1 mps 703 mmHg 92%
    10:00 +14°C° 0.9 mm 1 mps 703 mmHg 93%
    11:00 +13°C° 0.9 mm 2 mps 703 mmHg 95%
    12:00 +10°C° 0.9 mm 2 mps 703 mmHg 96%
    13:00 +10°C° 0.4 mm 2 mps 703 mmHg 96%
    14:00 +11°C° 0.4 mm 1 mps 703 mmHg 96%
    15:00 +10°C° 0.4 mm 1 mps 703 mmHg 96%
    16:00 +10°C° 0.1 mm 1 mps 704 mmHg 96%
    17:00 +10°C° 0.1 mm 1 mps 704 mmHg 96%
    18:00 +9°C° 0.1 mm 0 mps 704 mmHg 96%
    19:00 +9°C° 0 mm 0 mps 705 mmHg 96%
    20:00 +8°C° 0 mm 0 mps 705 mmHg 96%
    21:00 +8°C° 0 mm 0 mps 705 mmHg 95%
    22:00 +8°C° 0 mm 0 mps 705 mmHg 95%
    23:00 +8°C° 0 mm 0 mps 705 mmHg 94%

    8 June, Monday

    Time Temperature Precipitation Wind Pressure Humidity
    00:00 +7°C° 0 mm 0 mps 705 mmHg 93%
    01:00 +7°C° 0 mm 0 mps 705 mmHg 93%
    02:00 +7°C° 0 mm 0 mps 705 mmHg 93%
    03:00 +7°C° 0 mm 0 mps 705 mmHg 92%
    04:00 +8°C° 0 mm 0 mps 705 mmHg 91%
    05:00 +8°C° 0 mm 0 mps 705 mmHg 89%
    06:00 +9°C° 0 mm 0 mps 705 mmHg 87%
    07:00 +12°C° 0 mm 1 mps 706 mmHg 77%
    08:00 +14°C° 0 mm 1 mps 706 mmHg 66%
    09:00 +16°C° 0 mm 1 mps 706 mmHg 55%
    10:00 +16°C° 0.1 mm 1 mps 706 mmHg 55%
    11:00 +16°C° 0.1 mm 1 mps 706 mmHg 55%
    12:00 +18°C° 0.1 mm 1 mps 706 mmHg 55%
    13:00 +18°C° 0.1 mm 1 mps 706 mmHg 55%
    14:00 +18°C° 0.1 mm 1 mps 706 mmHg 55%
    15:00 +18°C° 0.1 mm 1 mps 706 mmHg 55%
    16:00 +18°C° 0.2 mm 1 mps 706 mmHg 64%
    17:00 +16°C° 0.2 mm 1 mps 706 mmHg 72%
    18:00 +15°C° 0.2 mm 1 mps 706 mmHg 81%
    19:00 +13°C° 0.1 mm 1 mps 707 mmHg 84%
    20:00 +11°C° 0.1 mm 1 mps 707 mmHg 87%
    21:00 +9°C° 0.1 mm 1 mps 707 mmHg 90%
    22:00 +9°C° 0 mm 1 mps 707 mmHg 90%
    23:00 +9°C° 0 mm 1 mps 707 mmHg 91%
    Show more